Regional Weather Roundup
Issued by NWS

Home | Current Version | Previous Version | Text Only | Print | Product List | Glossary On
Versions: 1 2 3 4 5 6 7 8 9 10 11 12 13 14 15 16 17 18 19 20 21 22 23 24 25 26 27 28 29 30 31 32 33 34 35 36 37 38 39 40 41 42 43 44 45 46 47 48 49 50
000
ASUS43 KLSX 201607
RWRMO

WEATHER SUMMARY FOR MISSOURI
NATIONAL WEATHER SERVICE SPRINGFIELD MO
1000 AM CST MON NOV 20 2017

NOTE: "FAIR" INDICATES FEW OR NO CLOUDS BELOW 12,000 FEET WITH NO
       SIGNIFICANT WEATHER AND/OR OBSTRUCTIONS TO VISIBILITY.
       CURRENT SKY AND/OR WEATHER CONDITIONS ARE NOT AVAILABLE FOR
       CHILLICOTHE AND FARMINGTON.

MOZ001>031-035>038-043-044-053-054-201700-
...NORTHERN AND WESTERN MISSOURI...

CITY           SKY/WX    TMP DP  RH WIND       PRES   REMARKS
KANSAS CTY INT MOSUNNY   52  29  41 SW20G29   29.88F
KANSAS C DTWN  SUNNY     54  29  38 SW21G28   29.90F
LEE`S SUMMIT   SUNNY     52  31  44 S21       29.92F
ST JOSEPH      SUNNY     53  28  38 S20       29.85F
CHILLICOTHE      N/A     51  31  46 S14G22    29.90F
KIRKSVILLE     SUNNY     51  31  46 SW18G24   29.90F

$$
MOZ066>068-077>081-088>096-101>105-201700-
...SOUTHWEST MISSOURI...

CITY           SKY/WX    TMP DP  RH WIND       PRES   REMARKS
SPRINGFIELD    SUNNY     50  31  48 S20G26    30.08F
JOPLIN         SUNNY     53  30  41 S20G33    30.05F
BRANSON        MOSUNNY   52  27  37 SW9G16    30.13F

$$
MOZ032>034-039>042-045>050-055>058-069>072-201700-
...CENTRAL MISSOURI...

CITY           SKY/WX    TMP DP  RH WIND       PRES   REMARKS
COLUMBIA       SUNNY     50  30  46 SW17      30.02F
JEFFERSON CITY SUNNY     50  29  44 S9        30.04F
ROLLA          SUNNY     50  28  42 S17G26    30.07F
SEDALIA        SUNNY     53  33  46 SW15G32   30.00F
WARRENSBURG    SUNNY     50  32  50 S14G23    29.96F
OSAGE BEACH    SUNNY     53  29  39 SW15G21   30.05F

$$
MOZ051-052-059>065-201700-
...EAST CENTRAL MISSOURI...

CITY           SKY/WX    TMP DP  RH WIND       PRES   REMARKS
ST LOUIS INTL  PTSUNNY   52  25  35 SW14      30.08F
SPIRIT OF STL  MOSUNNY   51  26  37 SW9       30.07F
ST CHARLES     SUNNY     51  28  41 SW12      30.06F

$$
MOZ072>076-082>087-097>100-106>115-201700-
...SOUTH CENTRAL AND SOUTHEAST MISSOURI...

CITY           SKY/WX    TMP DP  RH WIND       PRES   REMARKS
CAPE GIRARDEAU CLOUDY    42  29  59 S10       30.23S
FARMINGTON     CLOUDY    47  24  40 S9        30.15F
POPLAR BLUFF   SUNNY     43  31  62 S12       30.23F HAZE
WEST PLAINS    SUNNY     49  24  37 S12       30.16F

$$



USA.gov is the U.S. government's official web portal to all federal, state and local government web resources and services.